Simultaneous Nadir Overpasses (SNOs) Predictions

Prediction of SNOs between LANDSAT-8 and METOP-B Satellite Orbit:

Table of predicted SNOs for the next 14.0 days since TLE Epoch: 11/7/2020
Index Date (LANDSAT-8) Time (LANDSAT-8) Lat,Lon (LANDSAT-8) SZA (LANDSAT-8 ) Date (METOP-B) Time (METOP-B) Lat,Lon (METOP-B) SZA (METOP-B ) Distance(km) Time Diff (sec)
1 11/07/2020 12:34:33 81.10, 31.01 99.95 11/07/2020 12:33:35 81.10, 30.88 99.91 2.17 58
2 11/07/2020 13:23:59 -81.12,-161.10 80.01 11/07/2020 13:24:14 -81.13,-160.95 79.98 2.71 15
3 11/10/2020 08:08:47 81.11, 97.60 100.77 11/10/2020 08:07:58 81.10, 97.45 100.72 2.87 49
4 11/10/2020 08:58:13 -81.13, -94.48 79.19 11/10/2020 08:58:37 -81.13, -94.39 79.17 1.42 24
5 11/13/2020 03:43:02 81.10, 163.80 101.48 11/13/2020 03:42:22 81.10, 163.62 101.44 3.14 40
6 11/13/2020 04:32:27 -81.14, -27.89 78.42 11/13/2020 04:33:00 -81.14, -27.85 78.40 0.71 33
7 11/15/2020 23:17:15 81.10,-129.68 102.19 11/15/2020 23:16:44 81.10,-129.85 102.16 2.97 31
8 11/16/2020 00:06:41 -81.12, 38.30 77.75 11/16/2020 00:07:23 -81.13, 38.30 77.73 0.57 42
9 11/18/2020 18:51:29 81.10, -63.20 102.86 11/18/2020 18:51:07 81.10, -63.34 102.83 2.42 22
